Voltar ao catálogo

ONEWEB-0531

AtivoComunicaçõesPO
NORAD 54146·PAYLOAD·🇬🇧 United Kingdom

Lançado Oct 22, 2022 de Satish Dhawan Space Centre

Loading…

Próximas Passagens (próximas 24 horas)

TLE

AtualizadoSource: CelesTrak SupGP

Época: Sep 14, 2026, 13:45 UTC

1 54146C 22138AK  26257.57343009 -.00001330  00000+0 -32760-2 0  2574
2 54146  87.9135 256.6046 0001789 107.0811   3.0210 13.20772994    18

Acompanhe ONEWEB-0531 em tempo real com AllMySat

Download on the App Store